Pontiac, MI

1:22 AM EST on January 20, 2018 (GMT -0500)
Oakland County International

Weather History for KPTK - December, 2012

Change the Weather History Date:

Sunday, December 30, 2012

  Actual Average Record
Temperature  
Mean Temperature 23 °F -  
Max Temperature 28 °F 29 °F 50 °F (2006)
Min Temperature 18 °F 17 °F 3 °F (2017)
Degree Days  
Heating Degree Days 42    
Moisture  
Dew Point 19 °F    
Average Humidity 82    
Maximum Humidity 92    
Minimum Humidity 71    
Precipitation  
Precipitation 0.00 in - - ()
Snow  
Snow 0.00 in - - ()
Snow Depth 7.00 in    
Sea Level Pressure  
Sea Level Pressure 30.21 in    
Wind  
Wind Speed 8 mph (WSW)    
Max Wind Speed 13 mph    
Max Gust Speed 20 mph    
Visibility 9 miles    
Events Snow    
Averages and records for this station are not official NWS values.
T = Trace of Precipitation, MM = Missing Value Source: NWS Daily Summary

Daily Weather History Graph

Daily Weather History Graph

Search for Another Location

Airport or City:

Trip Planner

Search our weather history database for the weather conditions in past years. The results will help you decide how hot, cold, wet, or windy it might be!

Date:

Astronomy

Dec. 30, 2012 Rise Set
Actual Time 8:03 AM EST 5:09 PM EST
Civil Twilight 7:31 AM EST 5:41 PM EST
Nautical Twilight 6:56 AM EST 6:17 PM EST
Astronomical Twilight 6:21 AM EST 6:51 PM EST
Moon 7:43 PM EST (12/30) 9:09 AM EST (12/30)
Length of Visible Light 10h 09m
Length of Day
9h 05m
Waning Gibbous, 95% of the Moon is Illuminated
Dec 30
Waning Gibbous
Jan 4
Last Quarter
Jan 11
New
Jan 18
First Quarter
Jan 26
Full

Hourly Weather History & Observations

Time (EST) Temp. Windchill Dew Point Humidity Pressure Visibility Wind Dir Wind Speed Gust Speed Precip Events Conditions
12:53 AM 18.0 °F 6.9 °F 15.1 °F 88% 30.07 in 10.0 mi West 9.2 mph - N/A   Clear
1:53 AM 19.0 °F 10.0 °F 16.0 °F 88% 30.09 in 10.0 mi West 6.9 mph - N/A   Partly Cloudy
2:53 AM 19.0 °F 12.3 °F 16.0 °F 88% 30.12 in 10.0 mi West 4.6 mph - N/A   Overcast
3:53 AM 19.9 °F 14.9 °F 18.0 °F 92% 30.13 in 6.0 mi WSW 3.5 mph - 0.00 in Snow Light Snow
4:53 AM 23.0 °F 14.7 °F 19.9 °F 88% 30.15 in 6.0 mi West 6.9 mph - 0.00 in Snow Light Snow
5:22 AM 24.8 °F 16.9 °F 21.2 °F 86% 30.12 in 5.0 mi West 6.9 mph - 0.00 in Snow Light Snow
5:53 AM 24.1 °F 16.0 °F 21.9 °F 91% 30.17 in 9.0 mi West 6.9 mph - 0.00 in Snow Light Snow
6:53 AM 26.1 °F 16.2 °F 23.0 °F 88% 30.21 in 6.0 mi West 10.4 mph - 0.00 in Snow Light Snow
7:39 AM 26.6 °F 18.2 °F 23.0 °F 86% 30.19 in 10.0 mi West 8.1 mph - N/A   Overcast
7:53 AM 26.1 °F 17.6 °F 21.9 °F 84% 30.23 in 8.0 mi West 8.1 mph - 0.00 in   Overcast
8:36 AM 26.6 °F 18.2 °F 23.0 °F 86% 30.21 in 10.0 mi West 8.1 mph - N/A   Overcast
8:53 AM 26.1 °F 19.4 °F 23.0 °F 88% 30.25 in 9.0 mi West 5.8 mph - N/A   Overcast
9:18 AM 26.6 °F 18.2 °F 23.0 °F 86% 30.22 in 9.0 mi West 8.1 mph - N/A   Overcast
9:53 AM 27.0 °F 19.5 °F 21.9 °F 81% 30.27 in 10.0 mi West 6.9 mph - N/A   Overcast
10:53 AM 27.0 °F 18.0 °F 21.0 °F 78% 30.29 in 8.0 mi West 9.2 mph - N/A   Overcast
11:18 AM 26.6 °F 19.1 °F 21.2 °F 80% 30.24 in 9.0 mi WSW 6.9 mph - 0.00 in   Overcast
11:53 AM 28.0 °F 20.8 °F 21.0 °F 75% 30.27 in 9.0 mi WSW 6.9 mph - 0.00 in   Overcast
12:53 PM 27.0 °F 17.3 °F 21.0 °F 78% 30.27 in 8.0 mi SW 10.4 mph 16.1 mph N/A   Overcast
1:53 PM 27.0 °F 17.3 °F 19.9 °F 75% 30.26 in 8.0 mi SW 10.4 mph - N/A   Overcast
2:53 PM 26.1 °F 15.0 °F 18.0 °F 71% 30.25 in 9.0 mi WSW 12.7 mph 19.6 mph 0.00 in   Overcast
3:53 PM 25.0 °F 14.2 °F 19.0 °F 78% 30.28 in 10.0 mi WSW 11.5 mph - N/A   Overcast
4:53 PM 24.1 °F 13.7 °F 18.0 °F 77% 30.25 in 9.0 mi WSW 10.4 mph - N/A   Overcast
5:53 PM 23.0 °F 11.7 °F 17.1 °F 78% 30.25 in 10.0 mi WSW 11.5 mph - N/A   Overcast
6:53 PM 21.9 °F 13.4 °F 16.0 °F 78% 30.25 in 9.0 mi SW 6.9 mph - N/A   Mostly Cloudy
7:28 PM 21.2 °F 12.6 °F 15.8 °F 80% 30.22 in 9.0 mi SW 6.9 mph - N/A   Mostly Cloudy
7:53 PM 19.9 °F 11.1 °F 15.1 °F 81% 30.27 in 9.0 mi SSW 6.9 mph - N/A   Mostly Cloudy
8:53 PM 19.0 °F 10.0 °F 14.0 °F 81% 30.27 in 9.0 mi SW 6.9 mph - N/A   Scattered Clouds
9:53 PM 19.0 °F 12.3 °F 14.0 °F 81% 30.24 in 9.0 mi SSW 4.6 mph - N/A   Mostly Cloudy
10:53 PM 19.0 °F 10.0 °F 14.0 °F 81% 30.20 in 8.0 mi SSW 6.9 mph - N/A   Scattered Clouds
11:53 PM 19.0 °F 9.0 °F 14.0 °F 81% 30.19 in 8.0 mi SSW 8.1 mph - N/A   Mostly Cloudy